#timestamp,LO_Frequency,Hit,StdDev 
1676700015.3,286047003.8,N
1676700035.1,286046999.9,N
1676700055.8,286047001.3,N
1676700075.7,286047003.2,N
1676700095.5,286047004.4,N
1676700115.3,286047002.9,N
1676700135.2,286047003.6,N
1676700155.0,286047000.3,N
1676700155.9,286047000.3,N
1676700175.8,286047000.1,N
1676700195.6,286046998.2,N
1676700215.4,286046998.1,N
1676700235.3,286047004.3,N
1676700255.1,286047004.0,N
1676700275.9,286047003.1,N
1676700295.7,286047002.9,N
1676700315.6,286047006.9,Y
1676700335.4,286047005.9,P
1676700355.2,286047002.9,N
1676700375.1,286047004.4,N
1676700376.0,286047004.4,N
1676700395.8,286047001.5,N
1676700415.6,286047004.4,N
1676700435.5,286047004.1,N
1676700455.3,286047000.6,N
1676700475.2,286047001.3,N
1676700495.9,286047002.6,N
1676700515.7,286046998.2,N
1676700535.6,286046999.8,N
1676700555.4,286047004.2,N
1676700575.3,286047001.7,N
1676700595.1,286047000.2,N
1676700596.0,286047000.2,N
1676700615.8,286047000.4,N
1676700635.7,286047002.5,N
1676700655.5,286047004.1,N
1676700675.3,286047004.4,N
1676700695.2,286047003.5,N
1676700715.0,286047004.2,N
1676700715.9,286047004.2,N
1676700735.8,286047003.6,N
1676700755.6,286046999.3,N
1676700775.4,286046996.6,N
1676700795.3,286046998.4,N
1676700815.1,286046998.6,N
1676700835.9,286047001.0,N
1676700855.7,286047011.9,Y
1676700875.5,286046998.2,P
1676700895.4,286047000.9,N
1676700915.2,286046996.9,N
1676700935.0,286046997.5,N
1676700935.9,286046997.5,N
1676700955.8,286046996.9,N
1676700975.6,286046999.0,N
1676700995.5,286046999.5,N
1676701015.3,286047004.4,N
1676701035.1,286047002.1,N
1676701055.9,286047004.3,N
1676701075.7,286047001.3,N
1676701095.5,286046999.5,N
1676701115.4,286046996.9,N
1676701135.2,286047001.0,N
1676701155.1,286047000.9,N
1676701156.0,286047000.9,N
1676701175.8,286047002.4,N
1676701195.6,286047002.7,N
1676701215.5,286047001.8,N
1676701235.3,286047002.2,N
1676701255.1,286047000.5,N
1676701275.9,286046998.2,N
1676701295.7,286047000.8,N
1676701315.6,286046998.5,N
1676701335.4,286046998.1,N
1676701355.2,286046997.7,N
1676701375.1,286046994.3,N
1676701376.0,286046994.3,N
1676701395.8,286046995.6,N
1676701415.6,286046993.7,N
1676701435.5,286046993.6,N
1676701455.3,286046994.9,N
1676701475.2,286046995.3,N
1676701495.9,286046993.8,N
1676701515.7,286046993.4,N
1676701535.6,286046996.4,N
1676701555.4,286046995.1,N
1676701575.2,286046995.1,N
1676701595.1,286046995.4,N
1676701596.0,286046995.4,N
1676701615.8,286046999.5,N
1676701635.7,286046998.0,N
1676701655.5,286046995.4,N
1676701675.3,286046995.2,N
1676701695.2,286046997.4,N
1676701715.0,286046994.9,N
1676701715.9,286046994.9,N
1676701735.8,286046995.5,N
1676701755.6,286046997.2,N
1676701775.4,286047002.3,N
1676701795.3,286047002.8,N
1676701815.1,286047000.8,N
1676701835.8,286047001.9,N
1676701855.7,286046998.2,N
1676701875.5,286046997.4,N
1676701895.4,286047001.9,N
1676701915.2,286046999.7,N
1676701935.0,286046998.1,N
1676701935.9,286046998.1,N
1676701955.8,286047000.9,N
1676701975.6,286047000.4,N
1676701995.4,286046997.0,N
1676702015.3,286046998.2,N
1676702035.1,286046999.8,N
1676702055.9,286047000.0,N
1676702075.7,286046999.9,N
1676702095.5,286047000.7,N
1676702115.4,286046999.9,N
1676702135.2,286047002.0,N
1676702155.0,286047002.4,N
1676702155.9,286047002.4,N
1676702175.8,286047001.1,N
1676702195.6,286046998.3,N
1676702215.5,286046999.0,N
1676702235.3,286046996.9,N
1676702255.1,286046997.4,N
1676702275.9,286046995.6,N
1676702295.7,286046998.4,N
1676702315.5,286047002.7,N
1676702335.4,286047002.1,N
1676702355.2,286047001.0,N
1676702375.1,286046999.9,N
1676702376.0,286046999.9,N
1676702395.8,286047001.0,N
1676702415.6,286046996.9,N
1676702435.5,286047000.3,N
1676702455.3,286046997.3,N
1676702475.1,286046997.4,N
1676702495.9,286046995.6,N
1676702515.7,286046998.9,N
1676702535.6,286047001.2,N
1676702555.4,286046999.0,N
1676702575.2,286046996.9,N
1676702595.1,286047001.0,N
1676702596.0,286047001.0,N
1676702615.8,286047000.9,N
1676702635.7,286046997.8,N
1676702655.5,286046995.2,N
1676702675.3,286046998.7,N
1676702695.2,286046999.8,N
1676702715.0,286047002.7,N
1676702715.9,286047002.7,N
1676702735.8,286047001.9,N
1676702755.6,286047002.7,N
1676702775.4,286046999.0,N
1676702795.3,286046999.1,N
1676702815.1,286046998.3,N
1676702835.8,286047000.6,N
1676702855.7,286047000.5,N
1676702875.5,286047001.2,N
1676702895.4,286047000.1,N
1676702915.2,286047004.0,N
1676702935.0,286047002.3,N
1676702935.9,286047002.3,N
1676702955.8,286047000.2,N
1676702975.6,286047000.0,N
1676703025.5,286047003.9,E
1676703035.4,286047001.9,N
1676703055.2,286046997.8,P
1676703075.1,286046995.5,N
1676703076.0,286046995.5,N
1676703095.8,286046996.5,N
1676703115.6,286046997.5,N
1676703135.5,286046997.7,N
1676703155.3,286046996.8,N
1676703175.1,286046997.6,N
1676703195.9,286046998.9,N
1676703215.7,286046999.5,N
1676703235.6,286046997.0,N
1676703255.4,286046996.7,N
1676703275.2,286046998.0,N
1676703295.1,286046999.5,N
1676703296.0,286046999.5,N
1676703315.8,286046997.3,N
1676703335.6,286046997.8,N
1676703355.5,286046996.2,N
1676703375.3,286046996.4,N
1676703395.2,286046996.8,N
1676703415.9,286046997.1,N
1676703435.7,286046999.4,N
1676703455.6,286047000.0,N
1676703475.4,286047000.5,N
1676703495.2,286046999.7,N
1676703515.1,286047000.1,N
1676703516.0,286047000.1,N
1676703535.8,286046998.5,N
1676703555.7,286046999.0,N
1676703575.5,286046998.6,N
1676703595.4,286047000.7,N
